RH
72 73 72 70 66 61 61 67 72 74 73 71 70 69 69 70 69 69 68 68 67 66 65 65 64 63 62 61 61 60 59 58 58 59 59 59 60 60 60 59 58 57 55 54 52 51 49 48 47 46 45 44 42 41 40 38 38 37 37 37 36 37 38 44 51 49 42 41 42 41 41 41 38 35 34 28 21 21 21 17 15 15 15 14 13
74 75 76 76 74 68 63 61 63 69 73 74 74 73 71 70 69 69 68 67 66 66 65 65 64 64 63 62 62 60 60 59 59 59 59 60 60 61 61 60 59 58 56 55 54 52 51 50 49 48 48 47 46 45 43 42 41 40 40 39 39 38 39 41 46 51 47 41 40 41 39 37 37 33 31 29 27 27 25 20 18 17 16 16 15
75 75 77 79 78 75 72 68 65 65 67 70 73 73 74 73 73 72 71 70 69 67 66 65 64 65 64 64 63 62 61 60 60 60 59 60 60 61 62 61 61 60 58 57 56 55 54 53 52 51 50 50 49 48 47 45 44 43 42 41 41 40 40 41 44 48 50 45 40 40 37 34 33 32 30 29 30 30 28 24 22 21 19 17 17
78 77 77 78 80 80 78 76 74 72 70 70 70 69 70 69 70 71 72 73 74 74 74 73 71 69 68 67 65 64 63 62 61 61 60 61 61 61 62 62 62 62 60 60 58 57 56 55 54 54 53 53 52 51 50 49 47 46 44 44 43 42 42 42 43 45 48 49 43 38 37 34 32 32 30 29 27 26 27 26 24 23 21 19 19
81 80 80 79 80 81 80 79 78 77 76 76 75 74 73 71 70 69 68 69 71 73 76 77 79 78 76 75 72 70 69 67 65 64 64 64 64 64 65 65 65 64 63 62 61 60 59 58 57 56 55 55 55 54 53 52 51 49 47 47 45 45 45 44 44 44 46 50 48 41 37 34 32 31 31 29 27 25 26 27 26 24 23 21 21
81 81 81 82 83 82 80 78 77 75 75 75 75 76 76 76 76 75 73 72 71 70 72 74 77 80 81 83 82 81 79 77 74 72 70 69 68 68 68 67 67 67 66 64 64 62 61 59 58 58 57 56 56 56 56 55 54 53 51 50 49 48 48 47 47 48 47 50 52 47 41 36 34 32 31 31 31 30 29 29 28 26 26 25 23
83 82 81 80 82 83 81 80 78 76 75 74 73 72 72 73 74 75 76 77 76 74 73 72 72 74 77 80 83 85 85 84 83 80 77 74 72 70 70 69 69 68 67 66 65 64 62 61 59 58 57 56 56 56 57 56 56 56 54 53 52 52 53 52 53 54 54 55 59 58 51 44 41 39 38 35 35 37 37 36 36 31 28 27 27
85 84 81 77 80 82 82 83 82 80 80 78 77 76 75 73 72 72 72 73 75 76 75 74 72 69 68 68 71 75 79 81 82 81 80 77 74 71 69 68 68 67 67 66 65 64 63 61 60 59 58 57 56 56 56 57 58 58 57 57 57 57 57 59 61 62 63 64 66 67 63 56 50 49 48 42 39 41 40 39 41 40 37 36 36
88 87 82 78 79 80 81 83 82 83 82 81 81 80 79 78 76 75 74 72 72 73 74 75 74 72 68 64 62 62 64 67 70 73 75 74 72 71 69 67 66 66 66 66 66 66 64 63 62 61 59 58 57 56 56 56 58 59 60 61 62 63 64 66 69 71 73 74 73 73 72 67 59 54 54 50 45 44 42 40 43 47 49 50 48
87 86 83 80 80 79 79 80 80 81 81 80 81 80 78 78 77 76 76 74 73 72 72 72 73 74 74 71 67 62 57 56 57 58 60 62 63 64 65 65 65 65 66 67 67 66 66 65 64 62 62 60 59 59 58 58 59 59 61 63 64 67 70 74 77 78 80 83 82 80 79 77 69 62 59 57 53 52 51 50 52 54 57 59 57
86 83 82 80 80 78 78 78 78 79 79 79 79 77 77 76 75 74 74 73 73 73 72 72 72 72 74 75 75 73 69 66 64 63 63 65 65 63 61 63 64 66 68 69 69 69 68 67 66 65 65 64 62 62 61 61 61 62 64 66 67 69 72 77 82 84 85 87 86 85 84 83 78 72 67 64 62 61 61 61 63 64 66 66 61
86 84 82 81 80 79 79 79 79 79 79 80 79 79 78 76 74 73 72 71 72 72 72 73 73 73 73 75 76 77 77 77 79 83 84 85 86 81 74 71 70 70 71 72 72 72 71 71 70 68 67 66 65 65 64 64 65 66 68 69 71 73 74 77 80 82 86 88 88 88 86 84 83 80 76 72 70 69 68 68 70 70 71 69 64
88 86 85 83 82 82 81 81 81 80 80 79 80 80 79 78 76 74 72 71 71 71 72 73 74 75 74 74 76 78 80 85 90 96 98 97 97 96 91 87 83 79 78 78 78 78 78 77 76 74 73 72 71 70 70 71 71 72 73 74 76 78 78 80 82 82 81 83 85 86 84 84 84 82 79 76 74 76 76 75 74 74 74 72 68
91 89 86 86 86 85 85 84 83 82 81 80 79 79 78 78 77 75 73 71 70 69 70 71 73 75 76 76 77 79 86 95 98 100 101 100 99 100 99 98 95 92 88 85 85 85 85 84 83 82 80 79 79 78 78 78 78 78 80 81 83 84 83 85 89 92 89 86 86 85 83 83 82 80 78 76 76 79 80 79 78 77 77 75 70
94 92 90 89 89 89 89 89 87 86 84 82 80 79 78 77 76 75 74 72 70 68 68 68 70 72 74 76 78 81 91 100 101 100 100 99 96 96 98 99 100 99 97 95 94 93 92 91 89 88 86 84 84 83 82 83 83 84 86 87 88 89 88 87 88 93 96 96 94 90 85 82 80 78 78 78 79 80 80 81 81 81 81 78 74
96 95 93 91 91 92 92 92 92 91 88 86 85 82 81 80 77 75 75 73 70 68 67 66 66 68 70 72 75 80 88 97 100 101 100 96 90 90 95 97 99 100 99 99 99 98 98 98 97 95 94 91 89 89 89 88 88 89 90 90 91 93 93 89 85 87 93 98 99 95 89 85 82 81 80 81 83 84 85 88 87 85 84 80 75
98 97 96 93 92 92 93 95 95 94 93 91 89 86 84 82 80 78 76 74 72 69 66 65 65 66 66 68 71 74 80 89 99 102 100 95 88 85 87 90 91 93 94 94 95 97 97 98 99 99 98 97 96 96 96 95 95 95 95 96 96 98 99 94 89 91 97 100 101 99 94 88 86 87 89 88 87 87 90 94 92 86 82 76 73
98 99 98 95 93 92 93 96 96 96 96 96 92 90 86 82 79 79 78 77 74 70 67 66 66 65 65 65 67 68 69 76 90 100 102 98 91 84 83 84 84 84 85 85 85 86 87 88 89 91 93 93 94 98 101 100 99 99 100 100 100 100 101 96 91 92 97 98 99 100 99 96 93 93 94 95 94 93 93 93 90 85 81 75 70
98 99 98 95 94 93 94 96 96 96 97 98 97 93 87 79 75 75 77 79 78 72 69 68 66 65 65 64 63 64 63 64 73 87 98 100 96 91 85 80 77 77 77 77 77 76 76 77 76 77 79 80 81 88 98 101 99 100 101 100 101 102 100 97 93 93 94 96 97 97 96 96 97 97 97 98 99 99 96 93 90 86 81 76 72
99 99 98 95 93 93 94 94 92 91 94 97 99 96 88 79 74 74 76 80 80 76 72 71 69 67 67 66 65 65 65 63 63 71 84 94 98 100 94 81 73 71 71 69 68 68 66 67 68 68 73 82 86 91 98 100 99 101 100 100 100 97 91 87 86 87 87 87 88 88 88 89 92 96 99 100 100 101 100 98 96 92 85 80 79
99 99 99 95 93 94 92 86 82 83 88 93 96 95 88 79 73 72 75 77 80 80 78 76 76 74 73 73 72 70 68 68 65 64 70 80 91 99 96 82 69 69 74 75 75 74 70 67 66 64 66 79 89 92 94 95 95 98 100 101 99 93 87 85 84 82 84 84 83 83 84 84 84 86 90 94 97 99 100 101 100 99 95 91 90
99 101 99 97 96 90 79 72 72 78 86 90 92 93 89 81 72 69 68 68 71 74 75 76 76 75 73 72 69 64 60 56 53 48 46 58 82 100 99 88 81 84 91 92 89 86 82 78 75 72 72 81 89 89 89 90 90 91 93 93 94 96 97 97 95 93 95 96 94 93 93 91 90 88 87 87 87 88 90 92 94 97 99 98 95
100 102 98 95 90 75 62 64 74 85 91 91 90 91 89 84 77 72 67 63 61 63 67 69 68 66 62 57 51 48 45 42 44 46 40 45 76 102 101 94 98 101 102 100 97 96 96 94 88 84 86 92 95 94 95 95 95 96 95 94 96 99 99 98 98 100 101 101 101 101 100 100 99 97 94 90 85 82 81 81 81 84 88 90 89
102 102 97 89 76 61 54 59 71 82 89 90 90 90 88 86 82 76 68 62 61 65 69 69 67 62 56 50 45 47 54 58 64 71 64 56 73 98 104 101 99 92 85 85 89 89 89 88 87 88 95 100 99 98 99 99 99 100 101 100 100 99 96 96 97 98 99 100 100 101 101 101 101 101 99 95 91 89 89 87 86 87 89 92 93
101 101 95 80 65 55 52 53 55 60 66 70 73 76 75 73 69 61 54 51 56 64 70 71 70 64 57 55 58 63 71 76 76 77 74 66 67 83 95 92 81 72 68 72 75 75 76 81 86 92 98 100 99 99 100 98 96 96 95 95 95 93 91 89 87 88 91 93 95 97 97 95 95 95 95 92 90 90 90 88 88 89 90 92 93
100 100 90 72 59 55 53 51 50 49 50 51 52 54 55 54 50 45 45 49 55 62 69 70 68 63 62 69 77 80 80 81 78 74 72 70 69 76 84 85 83 86 89 90 89 89 89 92 92 89 85 82 79 78 77 75 75 75 74 74 74 73 73 71 70 74 79 80 82 83 83 81 81 82 82 82 82 81 78 77 77 76 78 83 88
100 97 83 66 60 58 56 55 53 51 51 50 49 50 51 51 51 47 47 55 64 72 79 77 69 70 78 86 90 90 87 87 84 76 72 76 83 89 93 95 96 96 93 89 88 88 86 86 85 82 81 78 75 72 70 68 67 66 65 65 65 66 68 69 69 72 74 77 79 80 79 79 79 79 80 82 84 83 82 85 86 83 82 90 98
101 94 77 65 62 61 61 61 58 56 56 55 53 54 55 57 56 52 58 75 88 90 88 79 74 82 94 96 95 96 95 91 86 81 82 90 96 98 99 98 96 93 90 88 88 87 86 85 83 80 79 77 76 75 74 74 75 75 76 77 78 79 81 82 84 84 84 85 87 87 88 89 89 88 89 91 92 91 92 95 99 98 97 99 102
101 90 75 68 66 65 66 66 64 63 62 60 58 57 58 59 55 55 72 94 98 91 86 83 86 96 101 98 98 100 96 90 88 91 96 100 100 99 100 100 99 98 97 97 96 97 96 96 94 92 90 87 84 81 79 78 79 81 84 86 87 88 89 90 91 92 92 92 94 94 96 98 98 98 99 99 98 96 96 98 98 99 100 102 102
101 88 76 72 71 72 73 72 70 70 68 66 63 57 56 60 64 73 93 101 93 89 93 96 98 101 100 99 101 100 96 95 98 100 100 101 101 101 101 100 99 98 97 97 99 101 101 100 100 100 99 98 97 95 93 92 91 91 92 93 92 91 92 93 94 95 96 97 98 99 99 99 99 98 99 99 97 94 94 97 98 99 101 102 102
101 89 78 76 76 79 82 80 76 74 71 72 71 64 60 63 68 81 96 94 84 89 101 102 100 100 101 100 100 99 100 101 101 100 101 101 100 98 97 98 99 99 99 99 97 98 99 100 101 100 98 98 99 98 96 95 95 94 94 94 93 92 93 95 95 95 97 98 98 100 100 99 99 97 96 96 96 94 92 93 96 100 103 101 100
101 90 81 80 81 84 87 86 83 79 74 73 76 74 73 73 70 72 79 79 80 92 103 102 99 100 101 101 101 102 102 99 99 102 103 99 93 89 92 98 101 100 100 98 95 94 95 96 98 99 98 98 98 97 97 96 95 94 94 93 93 93 93 94 94 93 94 95 95 97 97 96 96 96 96 97 99 99 97 95 96 100 102 102 102
101 91 84 84 86 88 90 89 86 83 79 77 79 81 85 88 86 81 76 73 76 86 93 93 91 89 87 89 95 100 100 100 102 100 91 85 88 94 98 101 101 99 97 95 93 93 93 93 93 93 93 93 93 93 94 93 92 92 92 92 93 94 94 94 94 92 92 92 92 92 90 89 91 93 94 95 97 99 99 99 98 99 100 101 101
98 90 85 87 90 92 93 91 88 85 82 82 86 89 91 95 99 98 92 85 81 81 81 82 83 80 77 78 81 85 92 98 96 85 75 80 94 102 101 100 99 97 93 90 89 89 89 89 91 90 89 88 87 86 86 86 87 89 90 90 92 93 94 93 91 89 88 87 85 83 82 84 90 95 97 98 98 97 96 97 97 97 97 98 99
93 86 86 90 93 94 96 94 90 87 85 88 92 95 96 98 101 102 104 103 100 95 89 83 80 79 79 80 79 80 84 85 81 77 81 93 103 103 98 94 91 87 83 82 83 84 85 86 87 88 87 86 85 84 84 85 86 88 89 89 90 90 90 89 86 84 82 80 79 81 86 90 92 93 94 93 92 90 91 94 97 99 99 99 99
87 86 88 91 93 96 98 95 90 88 89 93 95 97 99 100 100 102 104 106 106 106 102 95 87 83 81 81 80 80 79 77 81 91 100 103 101 96 91 85 82 79 79 79 81 83 86 88 88 87 86 84 82 82 85 88 92 94 93 91 90 88 86 84 82 80 81 82 84 90 94 93 89 86 85 85 84 85 89 91 94 99 102 102 99
88 89 92 93 96 99 100 95 90 91 94 96 98 100 101 102 103 104 106 105 105 105 104 101 97 92 87 84 83 83 79 77 82 94 99 95 89 86 84 84 86 85 82 80 80 81 86 90 92 91 88 85 83 85 89 94 97 97 94 91 90 88 86 86 86 86 87 88 89 89 86 82 80 82 87 89 88 86 83 80 81 87 90 91 93
89 91 93 94 97 99 98 93 91 94 97 99 101 103 104 104 105 105 105 104 103 102 100 99 98 96 92 90 88 86 84 83 84 87 88 86 84 84 88 93 95 92 87 84 82 81 85 93 99 98 93 88 88 90 93 94 94 92 92 91 88 86 86 86 86 85 83 82 80 78 77 76 79 86 93 96 94 89 81 75 73 73 71 71 75
84 86 88 90 93 94 93 91 92 96 99 101 103 105 106 106 106 106 106 105 104 102 99 97 96 95 95 95 93 91 93 95 95 93 92 91 89 91 95 98 97 94 91 88 86 85 89 97 102 99 93 90 90 90 91 92 91 90 89 86 83 81 80 79 77 76 76 77 77 76 78 80 84 89 94 95 92 87 82 76 73 74 75 74 76
82 83 86 89 90 90 90 92 94 97 100 103 105 106 106 104 103 104 106 107 105 101 98 96 95 95 97 97 96 97 99 101 101 101 100 97 95 95 96 97 95 93 90 88 89 91 95 99 100 97 92 90 90 90 91 92 90 87 84 81 79 77 75 75 76 77 78 79 80 81 83 86 87 87 85 83 79 77 76 76 76 78 83 88 91
86 83 84 89 92 93 93 95 96 98 102 104 104 103 102 102 103 105 106 107 105 101 99 97 97 97 98 98 97 100 103 102 99 97 94 93 93 95 97 97 94 91 90 90 92 95 97 96 95 92 90 90 91 91 90 89 86 83 80 79 77 76 76 78 80 81 83 84 84 85 85 83 80 77 74 70 67 66 69 77 83 85 90 95 100
90 84 84 89 94 97 97 96 97 100 104 104 102 101 101 102 104 106 106 106 104 103 102 99 96 95 97 97 96 97 97 94 89 85 83 86 91 96 98 96 91 88 88 90 93 97 98 94 90 88 90 92 93 91 88 85 82 81 80 78 77 77 78 80 83 85 88 88 87 85 83 79 76 73 69 68 70 73 77 83 87 91 96 100 100
93 89 87 90 95 99 100 99 100 103 104 103 102 102 102 103 104 106 106 105 104 103 102 100 96 95 96 97 96 92 88 85 84 82 82 87 94 99 100 95 89 87 88 90 94 98 96 91 86 87 90 91 90 87 84 82 81 80 79 78 79 79 79 81 83 86 89 89 89 87 84 80 76 74 73 77 86 92 95 96 96 97 100 101 101
97 94 92 92 96 100 101 102 104 105 105 105 105 104 103 102 102 104 105 104 102 101 100 98 97 96 96 96 95 91 85 83 85 85 85 88 94 98 99 95 88 85 88 92 95 96 93 88 86 87 88 87 86 84 82 81 81 80 80 78 77 75 73 72 72 73 76 82 86 87 85 82 82 85 89 94 100 101 98 98 100 101 100 100 100
98 97 95 94 96 99 102 105 106 106 106 106 106 105 104 103 102 103 103 102 100 99 98 97 97 98 98 97 95 90 86 85 87 87 87 89 90 91 94 94 89 86 89 94 94 92 90 87 86 85 85 85 84 83 83 82 81 78 74 70 67 65 65 67 69 70 73 78 82 85 88 91 94 97 98 99 101 100 96 94 96 99 100 100 101
97 98 97 96 96 99 103 106 105 103 104 105 105 104 103 102 101 102 102 101 100 99 97 96 97 98 98 97 94 91 88 87 87 86 87 88 87 86 89 93 92 89 90 94 93 90 89 89 87 86 86 85 84 84 84 80 75 70 66 65 65 67 70 74 77 79 82 85 89 92 97 100 101 100 98 97 97 98 96 93 93 97 101 104 105
97 99 99 98 98 101 104 105 104 102 103 103 104 105 103 100 100 101 102 101 100 100 99 100 101 101 99 97 94 92 90 88 87 86 86 88 87 85 85 90 93 93 92 93 92 89 89 89 88 86 85 86 86 84 79 72 66 65 67 70 71 74 79 84 88 89 91 94 96 96 95 93 90 87 87 90 95 99 99 96 95 98 101 104 102
100 102 101 100 100 102 105 106 106 106 106 105 104 105 104 103 102 102 103 103 103 102 103 104 105 103 101 98 95 93 92 90 87 86 86 87 86 83 81 84 89 92 94 94 92 89 88 87 87 86 87 87 85 80 71 65 64 68 72 75 78 84 92 96 94 91 88 84 80 77 73 69 66 66 67 73 84 95 100 100 98 97 98 99 97
103 104 104 103 102 102 104 106 107 106 106 107 106 105 105 105 105 104 104 106 106 105 106 108 108 106 104 100 97 95 94 91 88 86 86 86 85 83 80 81 84 90 94 94 90 87 87 87 86 87 87 86 82 73 65 61 64 70 75 78 82 89 96 96 89 82 77 72 68 68 68 67 65 65 64 66 72 81 88 91 94 98 102 103 102
102 105 106 106 104 102 103 106 106 103 103 104 104 103 104 106 106 105 105 106 107 107 107 108 109 107 104 101 100 98 95 91 88 87 86 86 86 84 82 83 88 93 95 92 88 86 87 87 87 88 88 85 76 67 62 61 64 69 75 80 83 87 91 89 83 77 74 73 74 77 79 79 78 75 73 73 74 75 76 79 85 94 103 107 106
103 106 107 107 105 103 105 107 106 104 102 102 101 101 102 103 103 104 105 107 108 109 107 107 109 110 106 103 102 101 97 93 90 88 87 87 86 84 83 88 94 95 92 89 87 87 87 87 88 89 87 80 71 64 63 64 64 67 74 81 84 85 83 81 80 78 78 79 82 85 87 88 90 88 86 86 86 85 84 84 85 89 97 103 105
Wind_Speed
36 34 32 30 28 27 24 19 15 12 11 12 14 16 17 19 20 21 22 23 24 24 25 26 27 28 29 30 30 31 31 31 32 32 33 35 36 36 36 36 37 38 37 37 37 36 37 37 38 39 38 37 38 38 38 38 37 37 37 36 36 36 34 27 17 10 10 15 18 21 25 27 26 27 27 27 28 27 25 24 23 23 22 21 20
36 34 32 30 28 25 23 22 19 16 12 10 10 11 12 14 15 16 18 19 20 21 22 23 24 26 27 28 29 29 30 30 30 31 32 34 35 35 35 35 36 37 36 36 36 35 36 36 37 36 36 36 37 37 37 37 36 36 36 35 36 36 35 33 25 15 12 15 19 21 24 27 27 27 27 28 28 28 26 25 25 24 22 21 20
35 34 32 31 28 24 22 21 20 18 16 13 11 9 8 9 9 11 13 15 16 18 19 20 21 23 24 26 27 27 28 28 29 30 31 32 33 34 34 35 35 36 35 36 35 35 35 36 36 35 33 34 36 35 35 35 35 35 36 35 36 36 35 34 30 21 14 15 20 23 24 26 28 28 28 28 28 27 26 26 25 24 23 22 22
34 33 31 30 28 25 23 21 19 18 17 16 14 12 10 8 7 6 8 9 12 13 15 17 18 20 22 23 24 26 27 27 28 29 30 31 32 33 33 34 35 35 35 35 34 34 34 35 35 34 33 33 34 34 33 33 33 34 35 34 34 34 34 33 33 28 19 16 20 24 26 27 28 29 28 26 26 26 25 25 24 24 24 23 23
33 31 29 28 26 24 23 21 20 18 17 16 15 14 13 11 10 8 6 6 7 8 10 12 14 16 18 20 22 23 24 25 27 28 29 29 30 31 32 32 33 34 34 35 34 34 34 35 34 32 32 33 33 32 32 32 32 33 34 33 33 33 32 31 32 31 25 20 19 21 25 26 27 27 28 27 26 26 25 24 25 25 25 25 25
32 29 27 25 23 22 21 20 20 19 18 17 16 15 14 13 12 11 9 8 6 6 7 8 10 12 14 15 18 20 21 23 24 26 27 28 29 30 31 31 32 33 34 34 34 34 34 35 34 33 33 33 33 32 31 32 32 32 32 32 32 30 29 29 29 29 28 24 20 20 23 25 25 25 26 28 28 27 27 26 26 27 27 26 26
30 27 25 23 21 19 19 19 19 18 18 17 16 16 15 15 14 13 12 11 9 8 7 6 7 9 10 11 13 15 16 19 21 23 24 26 27 29 29 30 31 31 32 33 33 33 34 34 33 33 33 34 34 33 32 31 32 32 32 32 30 28 28 28 27 27 27 24 20 20 23 24 25 25 25 27 27 28 28 25 25 27 29 28 28
26 25 23 21 19 18 18 17 17 17 16 16 16 16 16 15 14 14 13 12 11 10 9 8 7 7 7 8 9 10 12 14 16 18 21 23 25 27 28 29 30 30 31 32 32 32 33 33 33 33 33 34 34 33 33 32 32 32 32 30 29 28 28 28 27 26 26 24 22 22 22 23 24 23 22 24 25 25 27 27 26 28 28 29 30
23 22 21 19 17 17 17 16 16 16 16 16 16 16 16 15 14 14 13 12 11 10 9 9 8 7 6 6 6 7 8 10 11 13 16 18 21 24 25 27 28 29 30 30 30 31 31 31 32 32 32 33 33 33 33 33 32 32 32 30 29 29 28 27 27 26 25 23 20 20 19 19 21 22 22 25 28 29 29 29 29 28 26 27 29
22 20 19 17 16 16 15 15 15 15 16 16 16 16 16 15 15 14 13 12 11 10 9 9 9 8 7 6 5 5 5 6 7 9 11 13 16 18 21 23 25 26 27 27 27 27 28 28 29 29 30 31 31 32 32 33 33 33 32 31 31 30 29 28 27 27 25 21 19 19 18 17 21 27 28 29 31 30 28 27 28 27 23 22 24
20 19 17 16 16 16 15 15 15 15 15 14 14 14 14 14 14 13 12 12 11 11 10 9 9 8 7 7 6 5 4 4 5 6 7 8 10 12 15 17 20 21 22 23 23 24 24 25 25 26 27 28 29 29 30 31 32 32 31 31 31 31 30 30 29 28 27 24 21 21 21 19 21 28 31 29 29 28 27 27 26 22 20 18 16
19 18 17 16 16 16 16 16 16 15 15 14 13 13 12 12 11 11 11 10 10 10 9 9 8 8 7 6 6 5 4 4 3 4 4 5 7 10 10 11 13 15 17 18 19 20 20 21 22 23 24 25 25 26 27 28 29 29 30 30 30 30 31 30 30 29 29 27 23 23 25 23 22 26 30 29 28 28 28 28 26 23 23 21 16
18 17 16 16 16 16 16 16 16 16 15 15 14 13 12 11 10 10 9 9 9 8 8 7 6 6 5 4 4 3 2 3 3 4 4 3 5 7 9 9 9 10 12 14 15 16 17 18 19 20 20 21 22 23 24 25 26 27 28 29 30 30 30 30 30 29 30 30 27 25 27 26 25 26 29 28 28 27 26 27 28 26 26 25 24
18 17 17 16 16 16 17 16 16 16 15 15 14 13 13 11 10 10 9 8 8 7 6 5 5 4 3 3 2 1 3 5 5 5 4 2 3 4 6 8 8 8 9 10 11 13 14 15 16 17 17 18 19 20 21 22 23 24 26 27 28 29 29 29 28 27 28 29 28 26 27 27 26 27 28 28 28 28 27 28 29 29 30 29 29
18 17 17 17 17 17 17 17 16 16 16 15 14 13 13 12 11 10 9 8 8 7 6 5 4 4 3 2 2 1 4 7 7 6 4 2 2 1 1 3 4 5 6 7 8 9 10 11 13 14 14 15 16 17 18 19 20 22 23 25 26 27 28 30 29 28 28 28 27 28 29 29 29 28 28 28 29 29 28 28 28 28 28 26 26
19 18 18 18 18 17 17 17 16 16 15 15 14 13 13 12 11 11 10 8 8 7 6 5 4 4 3 2 1 0 3 5 7 7 6 4 3 2 2 2 3 3 2 2 4 5 7 8 9 11 12 12 13 14 15 17 18 20 21 23 24 25 27 28 28 28 29 28 28 29 30 30 29 29 29 28 28 28 27 27 26 24 22 20 20
19 18 19 19 19 18 17 17 17 16 15 15 14 13 13 12 11 10 10 9 8 7 6 5 4 3 3 2 1 1 2 3 5 7 7 5 4 3 3 2 3 3 3 2 2 2 3 4 5 7 8 9 10 11 12 14 16 18 19 20 21 22 23 25 25 26 26 25 26 28 30 30 30 29 28 28 28 27 26 27 25 24 22 16 13
18 18 20 20 20 20 18 17 17 16 16 15 14 13 13 12 11 9 9 8 7 6 5 5 4 3 3 2 1 1 1 2 2 6 7 6 6 5 4 3 1 1 0 1 1 1 1 2 2 3 4 5 7 7 9 11 14 16 18 18 19 19 21 22 24 25 25 25 25 26 26 26 27 27 27 27 26 27 29 29 27 27 25 17 12
19 20 21 21 21 21 19 18 16 16 16 15 14 13 13 12 10 9 7 7 6 5 5 4 4 4 3 3 2 2 2 2 1 2 5 6 6 6 5 4 3 3 3 4 4 4 4 4 4 5 5 5 6 6 7 9 12 14 16 17 18 19 20 22 24 25 26 27 27 28 27 25 24 24 25 26 26 28 31 31 28 28 27 21 16
19 20 21 22 22 21 20 18 16 15 14 14 13 12 12 11 9 7 6 5 4 4 4 4 4 4 3 3 3 3 3 4 4 3 3 4 5 6 5 6 6 6 6 6 6 7 7 7 7 7 7 7 8 8 9 10 12 14 15 17 19 20 20 21 23 23 25 27 27 28 28 28 27 27 26 26 27 28 30 29 28 30 29 24 19
20 20 21 22 22 21 19 18 16 14 13 12 11 10 10 9 8 6 5 4 3 3 3 3 3 3 3 3 3 4 5 6 6 6 5 4 4 5 5 6 6 6 6 6 6 7 8 8 9 9 8 9 9 10 12 13 14 15 17 18 20 22 23 24 25 25 25 26 27 27 27 27 28 29 28 28 29 28 29 29 29 29 30 27 22
20 21 21 22 21 19 18 16 14 13 11 10 10 9 8 8 7 6 5 4 3 3 3 3 3 4 3 3 3 4 5 6 6 6 5 4 3 4 4 5 5 5 4 4 5 6 7 7 7 7 7 8 10 11 12 13 15 16 17 17 17 18 18 20 21 23 24 24 24 25 26 26 27 28 29 29 30 29 30 31 32 31 32 32 29
22 21 22 21 19 17 15 13 12 11 10 9 8 8 8 7 7 7 6 6 5 4 3 4 3 3 3 2 2 2 3 3 3 2 2 2 2 3 3 2 3 3 4 5 6 7 7 7 7 7 7 9 11 11 11 11 11 10 9 9 9 9 8 8 8 12 16 18 18 20 21 22 23 24 27 29 30 30 32 32 32 32 31 31 32
22 22 22 20 18 16 14 11 10 10 10 9 9 9 9 9 9 9 8 8 7 5 4 4 4 4 4 3 2 1 1 1 1 2 1 1 1 3 3 2 2 3 5 6 7 7 7 8 8 8 9 9 10 9 7 6 6 5 4 5 6 6 6 5 4 5 7 10 11 11 12 13 14 16 19 22 22 23 25 27 27 28 28 28 28
21 21 20 18 16 15 13 12 10 10 10 10 10 10 11 11 10 10 9 8 7 6 5 5 5 5 5 4 3 3 2 2 2 2 2 2 2 3 3 2 2 3 4 5 5 6 6 7 8 8 9 10 10 10 9 8 9 9 9 9 10 10 10 10 9 8 8 9 9 10 10 10 11 12 13 14 14 14 16 18 20 21 22 23 24
20 19 18 16 14 13 14 13 11 10 9 9 9 9 10 10 10 9 8 8 7 5 5 5 5 5 4 5 4 4 4 4 4 4 4 4 4 4 3 4 4 5 5 5 5 6 6 7 8 9 10 11 12 13 14 14 14 14 14 14 14 14 13 13 12 11 12 13 13 14 15 15 15 15 15 14 15 16 17 18 19 20 21 22 23
19 18 16 14 13 12 13 13 12 11 9 9 8 8 8 8 8 8 7 6 5 4 4 4 4 4 5 6 7 7 7 7 6 5 5 5 6 6 5 6 6 6 6 6 6 6 7 7 8 9 10 11 12 13 14 15 15 16 16 16 16 15 14 13 13 13 13 14 14 15 15 15 16 16 17 16 17 18 18 19 20 21 22 22 22
17 16 15 13 13 12 12 12 12 11 10 9 8 7 6 6 6 5 4 4 4 4 4 4 4 5 6 8 10 10 10 7 5 5 6 7 8 8 6 5 5 6 6 7 7 8 8 9 9 10 10 11 11 12 13 14 15 15 16 16 15 14 13 12 12 12 12 13 13 14 14 14 15 16 16 16 17 17 17 17 19 20 20 19 18
16 15 14 12 12 12 11 11 11 11 11 10 8 7 6 5 5 4 3 4 5 4 4 4 6 8 10 11 10 10 9 7 5 5 7 9 9 8 5 4 7 9 9 10 11 12 13 13 13 12 12 12 12 13 14 14 14 14 14 14 14 13 12 12 11 11 11 11 12 13 12 13 13 14 14 15 16 15 15 16 17 18 18 18 16
15 15 13 12 12 12 11 11 11 10 10 10 9 8 6 4 4 4 4 4 3 3 5 8 9 9 7 5 4 5 7 7 6 7 9 10 9 7 6 9 12 14 14 13 13 13 12 11 10 10 11 11 12 13 13 13 14 13 13 12 12 11 11 10 9 8 8 9 9 9 10 10 11 11 12 13 14 14 13 14 15 16 16 15 14
16 15 13 12 12 12 12 12 11 10 10 9 9 9 7 5 3 2 4 5 4 3 5 6 5 4 4 2 2 5 7 8 9 10 10 9 9 10 12 13 12 9 8 7 7 8 8 7 6 7 7 7 8 9 9 9 9 9 9 8 8 7 6 6 6 5 5 5 5 5 6 6 7 8 8 9 10 11 11 11 12 13 14 13 11
16 15 13 12 12 12 13 12 12 11 9 8 8 8 9 9 6 3 4 4 4 3 3 3 3 3 3 4 5 7 8 8 9 9 9 10 12 13 11 8 5 5 5 6 6 7 7 6 6 6 5 5 5 5 5 5 5 5 5 5 5 5 5 5 5 5 5 5 4 4 5 5 5 6 6 7 7 8 8 9 10 10 11 10 10
15 14 13 12 13 13 13 13 12 10 9 9 8 8 8 9 9 9 8 6 4 4 4 5 6 7 6 6 5 6 7 7 8 10 12 12 12 9 5 3 5 7 9 8 8 7 7 7 6 6 6 5 5 5 5 5 5 5 6 6 6 6 6 6 6 6 6 5 6 6 6 6 6 6 7 7 7 7 7 7 7 8 9 9 8
14 13 12 12 13 13 13 13 12 10 9 9 9 9 8 8 9 10 12 12 9 7 5 5 6 7 7 7 6 6 7 7 9 12 12 10 9 8 8 8 10 12 11 9 8 8 8 8 8 7 7 7 7 7 6 6 6 6 6 6 6 6 6 6 6 6 6 6 7 7 7 7 6 6 5 5 5 5 6 5 5 6 7 8 8
13 12 12 12 13 13 13 12 11 10 9 9 9 9 10 9 9 10 11 11 11 11 9 7 6 7 7 7 7 7 8 9 10 10 9 9 10 12 13 12 13 13 12 9 8 7 6 7 7 7 7 7 7 7 7 6 6 6 6 5 5 5 5 5 5 5 6 7 7 6 5 5 5 5 4 4 4 5 5 5 5 6 6 6 7
12 12 12 13 13 13 13 12 11 10 10 10 10 10 10 10 11 11 11 11 11 12 11 10 8 8 7 7 8 9 9 9 9 9 8 9 10 13 13 12 11 10 9 8 6 6 5 5 5 5 5 5 5 5 6 5 5 5 5 4 4 4 4 4 5 5 6 6 5 5 4 5 5 5 5 6 6 6 6 5 5 6 6 6 6
12 13 14 14 13 13 13 12 11 10 10 10 10 10 11 11 11 11 12 12 12 12 12 11 10 9 8 7 8 9 9 9 8 8 7 8 9 11 11 9 8 8 7 7 6 6 6 5 4 4 4 5 4 5 5 4 4 4 4 4 3 3 3 3 4 4 4 4 5 5 6 6 7 6 6 6 6 5 5 6 6 7 7 7 8
12 14 14 14 14 13 13 12 10 10 10 10 10 10 11 12 11 11 11 11 11 12 12 11 11 10 9 8 8 8 9 9 9 8 8 8 8 8 7 7 7 8 7 7 7 7 7 6 5 5 5 4 4 4 4 4 4 4 4 3 3 2 2 3 3 4 5 5 5 6 6 7 7 7 7 6 6 6 6 7 7 8 9 9 10
12 13 13 13 13 13 13 12 11 10 10 10 10 10 11 11 11 11 11 11 12 12 12 12 12 11 10 9 8 8 8 8 8 9 9 8 7 6 6 7 8 8 8 8 8 7 7 7 6 5 4 4 4 4 5 5 4 4 4 3 3 3 3 4 4 5 5 5 5 5 6 6 6 6 6 6 6 7 8 8 8 9 10 11 12
13 14 13 13 13 13 12 11 11 11 10 10 10 11 12 12 12 12 12 12 12 13 13 13 13 12 10 9 8 7 8 9 9 9 10 9 8 7 7 8 9 9 9 8 8 7 7 6 5 4 3 4 4 5 5 5 4 4 3 3 3 3 4 4 4 5 5 5 5 5 5 5 5 6 6 7 7 8 9 9 10 11 12 13 14
16 16 15 14 12 12 12 12 12 11 11 11 12 12 13 13 13 12 12 13 13 14 14 14 14 12 10 10 9 7 8 10 11 11 11 11 10 9 8 8 9 9 8 8 7 7 6 5 4 4 4 4 5 5 5 5 4 4 4 4 4 4 4 4 4 5 5 5 5 5 5 6 7 7 8 8 9 9 10 11 11 12 13 13 13
18 18 17 15 13 13 13 13 12 12 12 13 14 14 14 14 13 13 13 14 14 14 15 15 15 13 11 11 10 9 10 11 12 12 12 11 10 9 8 8 9 9 8 7 6 5 5 5 5 5 4 5 5 5 5 5 5 4 4 5 5 5 5 5 5 6 6 6 6 6 6 7 7 8 9 10 10 11 11 12 12 12 12 12 11
20 19 17 16 14 14 14 14 13 13 14 15 15 14 14 14 14 14 14 15 14 15 15 15 15 14 12 12 11 11 12 12 12 12 11 10 9 9 8 8 8 8 8 7 5 5 6 5 5 5 5 5 5 5 5 5 5 5 5 5 6 6 7 8 8 8 8 8 7 7 7 8 8 9 10 10 10 10 10 10 11 10 10 10 9
21 19 18 17 16 15 15 15 15 15 15 16 16 15 15 14 15 15 15 15 15 15 15 16 15 15 14 13 12 12 13 12 12 12 11 10 9 8 8 8 8 8 8 7 5 5 6 6 6 6 6 5 5 5 4 4 5 5 6 7 8 8 8 8 9 9 9 9 8 7 7 8 8 8 9 8 8 9 9 9 9 9 8 8 9
21 20 19 18 17 17 16 16 16 16 16 16 17 17 15 15 15 15 15 16 16 16 16 16 15 15 15 14 13 13 13 13 12 12 11 11 10 9 8 8 8 8 7 7 6 6 6 7 6 6 6 6 5 5 5 5 6 6 7 7 7 7 6 6 6 6 6 6 6 6 6 6 6 6 7 7 7 8 8 9 9 9 9 8 8
21 20 19 18 18 18 17 17 16 16 17 17 17 17 16 15 15 15 16 16 16 16 17 16 16 15 15 15 14 14 14 13 13 12 11 11 11 9 9 8 8 8 8 7 7 7 7 7 7 7 6 6 5 5 5 6 6 6 6 5 4 4 3 3 3 3 3 3 4 4 4 5 5 6 6 7 8 8 8 9 9 8 8 8 8
20 19 19 19 19 18 18 17 17 17 18 18 18 18 17 16 16 16 16 17 17 17 17 17 16 16 16 15 15 15 14 14 13 12 12 11 11 10 9 9 9 8 8 8 8 8 8 8 7 7 6 6 5 5 6 6 5 5 4 4 3 3 2 2 1 1 2 2 2 3 3 4 5 6 7 7 8 8 9 9 8 8 8 8 9
20 20 19 19 19 19 19 18 17 18 18 18 18 18 17 17 17 17 17 17 17 17 18 18 17 17 16 16 15 15 14 14 13 13 12 12 11 10 10 10 10 10 10 9 9 9 9 8 8 7 7 6 6 6 6 5 5 5 4 4 3 3 3 3 2 2 2 2 2 3 4 5 6 6 7 8 8 9 9 9 9 10 10 10 11
20 20 20 20 19 19 19 18 18 19 19 18 18 19 18 18 18 18 18 18 18 18 18 18 18 17 17 16 15 14 14 14 14 13 13 12 11 10 10 10 10 10 11 11 10 10 9 9 8 8 7 6 6 6 5 5 5 5 5 4 4 4 4 4 4 3 3 3 3 4 4 6 6 7 7 8 8 9 10 10 11 11 12 12 13
21 20 20 20 20 20 19 19 19 20 19 19 19 20 19 19 19 19 19 19 19 19 19 18 18 17 17 16 15 15 14 14 14 13 13 12 12 11 10 10 10 11 11 11 11 10 10 10 9 8 7 7 7 6 6 6 6 6 6 5 5 5 5 5 5 5 4 5 5 6 6 7 7 7 8 8 9 10 10 11 11 12 13 13 14
21 20 20 20 20 20 20 20 20 20 20 19 19 20 20 20 20 19 19 19 19 19 19 18 17 17 16 16 15 15 15 14 14 13 13 13 12 12 11 10 10 11 12 12 11 11 11 10 10 9 8 7 7 6 6 6 6 7 7 7 6 6 6 6 6 6 6 7 7 8 8 8 9 9 9 10 10 11 11 11 12 12 13 13 14
Wind_Direction
4 3 6 10 11 10 10 9 359 337 315 299 286 277 272 266 263 261 258 257 255 253 251 249 248 247 246 245 243 242 241 239 238 236 235 236 237 237 237 236 236 237 237 237 237 236 236 237 238 238 237 237 237 237 236 236 236 235 234 233 232 231 230 228 235 242 222 218 223 222 221 220 218 218 218 215 214 217 221 221 221 222 223 223 223
1 1 1 6 10 10 10 13 13 8 358 340 320 305 292 283 276 270 265 263 261 258 256 254 252 250 248 246 245 243 242 240 238 236 235 235 235 235 235 234 235 236 235 236 236 235 236 236 237 237 236 236 237 236 236 235 234 233 233 232 232 232 230 228 230 236 231 220 219 219 218 215 215 216 214 212 215 218 218 218 218 221 223 224 225
359 360 1 3 7 10 12 14 15 15 15 10 358 342 323 306 292 280 274 271 267 264 261 259 257 254 251 249 248 246 244 242 240 238 237 236 235 235 234 234 235 235 234 235 235 234 234 235 236 235 234 234 235 235 235 234 232 232 232 232 232 232 231 228 228 231 230 223 219 217 214 211 213 215 215 215 219 220 219 219 221 222 224 226 230
356 358 360 1 3 8 13 16 17 18 19 17 14 10 4 355 337 309 288 277 270 266 263 260 258 255 253 251 250 249 247 245 242 241 239 238 237 237 236 236 235 235 234 235 234 233 233 234 235 234 232 232 233 232 232 232 231 231 231 231 231 232 231 229 229 230 231 227 220 218 217 214 214 216 215 213 216 220 221 222 223 225 227 229 233
353 355 356 358 360 4 10 14 17 20 20 18 17 15 13 12 9 0 345 318 290 274 265 258 256 255 254 254 253 252 250 248 245 243 242 240 239 238 237 237 236 236 236 236 235 234 234 234 235 233 230 230 231 230 229 229 230 230 230 230 229 230 230 229 228 229 230 229 221 216 217 216 215 216 215 212 212 216 219 222 224 226 229 232 236
350 352 353 354 357 1 5 9 12 14 16 16 15 14 13 13 12 10 6 358 339 311 290 272 262 258 256 255 255 255 254 252 250 249 247 244 242 241 239 238 238 238 239 239 238 236 236 236 236 233 230 230 230 229 229 228 228 227 227 228 228 227 226 226 226 226 227 229 224 215 213 213 214 215 216 215 214 214 216 220 225 227 229 232 237
347 349 349 350 353 358 1 4 5 6 7 7 6 6 7 7 8 8 4 0 354 344 331 312 291 276 266 258 255 254 254 254 254 253 251 249 246 244 242 241 241 241 241 241 240 239 238 237 236 234 232 232 231 230 229 227 226 227 227 226 225 224 223 223 223 223 224 225 223 218 215 214 215 217 218 218 217 218 217 217 222 227 229 233 238
345 346 347 347 350 354 358 358 358 359 358 357 357 358 359 360 0 359 355 353 352 348 342 333 320 304 286 271 260 256 253 253 254 254 253 252 249 247 246 244 243 242 242 242 241 240 240 238 237 236 235 235 235 233 231 228 226 226 227 225 222 221 221 221 220 220 221 221 220 219 216 214 214 215 216 212 211 216 219 218 224 229 231 235 239
344 345 346 347 348 351 353 353 354 354 352 352 354 354 355 355 355 353 350 348 347 343 339 334 327 319 309 296 279 266 259 255 255 255 255 253 251 249 248 246 245 243 243 243 242 241 241 240 239 239 238 239 239 238 236 234 230 228 227 223 220 219 219 218 217 217 217 218 219 216 212 211 210 207 206 207 210 216 219 221 227 232 234 238 241
345 346 347 349 350 350 351 352 354 354 353 354 355 354 354 353 351 350 347 345 342 338 334 330 325 322 319 315 301 283 267 256 253 253 253 254 252 251 249 248 246 245 243 243 243 242 242 242 242 242 242 242 242 241 240 238 236 235 232 228 224 220 217 216 216 217 215 215 214 210 207 209 211 209 211 214 217 219 219 220 227 233 235 240 246
343 345 346 347 347 349 351 354 355 356 356 356 354 353 353 351 348 346 344 342 340 338 335 331 328 327 324 320 313 298 281 268 260 256 253 252 253 251 250 249 248 247 246 245 245 245 244 243 243 242 242 242 241 240 240 239 238 237 236 235 234 229 223 218 217 216 215 216 216 211 210 213 215 217 219 219 220 221 223 224 227 229 228 231 242
339 340 343 344 344 346 348 351 353 354 355 354 352 351 348 346 345 343 343 344 342 339 337 335 333 331 327 320 315 306 293 289 290 288 283 273 265 261 258 257 255 252 250 248 248 247 245 243 242 240 239 239 238 238 237 237 238 238 237 237 238 237 234 230 227 223 219 219 219 219 219 220 221 221 221 221 224 227 229 228 227 226 226 226 228
336 335 338 341 342 344 345 347 349 350 350 350 348 346 343 343 344 344 344 345 343 341 340 337 335 330 324 321 318 318 328 335 338 346 343 309 272 263 261 261 261 258 255 253 251 248 245 243 241 240 239 238 238 237 236 235 236 237 238 238 238 239 239 238 237 235 232 228 226 227 228 226 225 227 229 230 229 227 226 226 226 226 226 228 231
331 331 334 338 339 341 341 343 345 345 346 345 343 342 342 341 342 341 340 340 340 341 341 340 339 333 328 333 335 355 47 30 24 30 18 312 267 257 249 246 249 251 253 253 252 250 248 246 244 244 242 239 238 237 236 236 234 234 234 235 236 237 239 238 236 237 238 235 232 235 236 233 233 236 239 239 232 226 224 225 226 227 230 234 238
325 325 329 334 336 338 338 337 338 338 338 339 338 338 337 337 338 337 336 338 337 337 339 337 337 340 337 340 346 67 73 47 36 43 40 345 301 315 217 220 224 230 238 243 246 246 246 245 245 245 244 241 239 238 237 236 235 234 233 233 234 235 237 238 236 234 236 236 236 239 240 241 242 244 244 242 238 235 235 236 236 234 235 238 241
321 321 325 330 333 334 333 331 331 332 332 331 331 331 331 332 332 330 329 331 330 328 330 327 325 332 332 332 329 167 102 60 42 42 40 13 354 37 86 110 121 134 157 191 218 228 233 235 236 238 240 240 240 239 239 239 237 234 233 233 235 235 237 239 241 239 238 238 239 242 245 248 249 249 249 246 244 244 241 238 238 235 230 235 239
316 318 322 326 328 329 329 326 324 324 324 324 324 324 325 325 323 322 320 320 321 319 315 314 311 312 310 306 297 222 159 89 48 39 37 19 360 16 49 74 92 101 103 114 138 172 202 218 224 229 236 240 241 240 238 238 238 236 234 233 234 235 237 240 243 242 241 241 242 244 247 250 251 251 249 247 248 247 236 227 228 228 225 228 232
313 314 318 322 323 324 323 320 318 318 316 317 318 318 321 320 317 316 312 309 310 305 298 297 291 283 285 280 266 268 233 163 70 35 32 23 359 348 354 5 14 5 295 253 242 231 219 228 228 228 231 232 234 235 231 234 239 238 235 233 233 233 236 241 244 243 242 241 243 244 244 245 248 249 246 243 243 241 234 228 226 224 221 221 227
310 311 314 317 318 318 318 315 313 312 310 310 312 315 318 318 315 312 307 302 298 290 281 277 268 261 261 258 250 262 263 231 214 5 19 16 356 339 330 326 319 306 290 282 278 274 270 270 268 264 262 252 244 240 237 238 241 241 238 235 233 234 239 244 247 247 246 244 245 247 247 246 245 244 243 241 237 234 234 235 230 224 221 222 227
307 309 311 314 315 314 314 312 311 309 305 303 306 311 315 315 314 312 306 299 291 276 257 244 240 236 232 242 256 262 266 270 268 279 321 350 347 332 313 299 295 289 286 286 285 283 279 276 274 272 269 267 263 259 257 254 251 250 245 237 236 243 252 256 255 255 255 254 253 255 256 255 253 249 244 241 236 231 232 234 230 226 226 226 226
305 308 310 313 314 312 311 310 309 307 304 302 303 307 310 312 315 318 317 312 293 268 254 238 234 240 241 252 274 281 283 285 283 284 291 301 313 315 302 292 288 284 282 282 279 277 276 274 273 273 269 269 269 266 265 261 257 257 253 246 248 257 259 256 255 255 255 256 257 258 258 259 259 258 255 251 245 239 236 237 236 232 229 228 227
304 307 311 314 314 312 311 310 309 306 305 306 305 305 307 309 313 320 326 326 313 287 276 266 257 262 269 273 281 287 289 291 290 289 284 278 292 304 295 290 291 278 260 256 260 264 269 269 269 271 268 266 265 264 265 263 261 263 264 261 262 263 255 248 249 249 246 247 249 251 253 255 256 257 257 256 253 249 245 244 243 240 237 237 237
305 307 311 314 314 312 311 310 307 306 306 307 306 305 303 303 306 313 319 323 323 317 306 301 294 292 297 306 300 288 283 287 300 307 283 261 306 326 311 296 284 256 239 244 250 254 258 259 258 260 259 259 261 263 264 262 258 260 264 262 258 258 255 252 253 246 241 241 242 244 248 252 255 256 257 257 257 256 253 250 248 247 246 247 247
304 306 311 314 313 312 312 311 307 304 303 303 302 301 301 300 303 309 314 317 319 323 323 322 326 333 345 11 53 103 112 99 63 16 339 309 341 338 330 327 298 262 251 251 251 251 253 257 258 261 261 261 263 262 253 241 235 239 250 256 260 269 276 278 275 258 246 243 243 244 245 246 248 252 257 261 263 262 259 258 257 256 258 259 258
301 305 309 312 311 310 310 311 309 305 303 302 301 299 300 302 304 308 312 314 316 322 327 330 335 341 354 23 58 82 79 60 28 356 338 328 335 335 330 324 303 279 268 264 263 264 264 265 265 265 262 262 265 268 267 267 268 270 274 278 280 285 289 289 287 281 270 263 259 257 257 257 257 259 264 269 271 268 263 261 260 259 260 262 263
299 303 307 310 309 308 308 308 307 306 303 300 299 298 298 300 303 304 305 307 312 319 325 331 338 344 357 14 21 19 10 355 346 341 333 333 343 349 339 320 305 296 295 293 285 278 271 266 265 263 260 261 264 268 273 278 280 281 282 285 286 287 287 287 283 276 267 264 263 263 265 268 269 269 269 267 264 263 264 264 263 262 259 258 257
297 301 305 308 308 308 307 306 306 307 305 301 297 294 292 294 298 301 302 304 310 322 329 331 335 342 350 353 346 338 335 338 341 342 342 347 352 347 331 316 306 302 304 301 292 288 285 281 278 275 272 270 269 269 271 273 275 278 280 282 284 285 283 281 276 270 267 265 263 263 264 265 264 263 262 259 255 254 254 255 257 260 260 259 257
294 299 303 304 306 308 307 307 309 310 310 309 306 301 297 294 291 295 305 310 311 318 322 324 331 334 333 329 322 319 324 335 343 342 342 344 341 335 329 320 313 310 307 301 298 300 298 293 288 283 279 277 275 273 273 272 272 274 276 277 279 281 281 279 275 271 270 268 266 265 264 261 259 259 258 255 253 250 249 249 251 254 258 259 259
290 295 297 300 306 309 308 309 313 314 314 315 313 308 306 301 295 299 316 314 308 313 319 324 326 320 312 309 308 309 316 328 337 332 327 327 326 323 320 320 319 314 307 301 298 295 288 281 276 272 270 269 269 269 271 271 271 272 274 276 279 281 281 281 277 272 269 266 264 264 263 260 259 258 257 257 256 255 253 254 256 257 259 259 259
288 291 294 299 307 312 313 315 317 318 318 319 317 314 313 304 298 306 315 307 295 302 307 307 310 315 313 308 305 305 310 315 315 309 309 314 313 301 295 306 308 301 295 292 287 282 280 277 272 269 267 266 267 268 269 271 272 275 276 278 279 281 282 282 279 276 270 264 262 262 261 260 260 259 259 261 263 262 261 260 260 262 263 260 258
284 287 292 300 309 314 317 319 320 319 319 319 318 318 318 311 287 256 267 276 277 300 317 313 320 348 7 353 299 294 292 295 304 310 312 313 303 294 300 311 307 290 284 290 282 275 281 283 279 276 273 269 268 269 269 271 272 273 275 278 280 281 282 281 282 283 282 276 272 268 264 264 265 265 265 267 269 269 266 263 262 263 264 262 260
280 284 290 299 308 313 316 319 319 316 314 312 314 317 317 318 315 279 249 262 269 279 309 316 314 327 327 311 310 310 303 305 314 312 303 302 306 308 314 320 301 257 261 289 295 287 286 285 280 277 272 265 261 258 258 262 263 262 266 271 274 276 277 278 281 285 290 292 288 282 279 278 276 273 271 270 271 272 270 267 267 268 270 269 268
278 281 287 297 305 309 313 316 315 311 309 308 309 311 312 314 313 307 301 302 288 256 254 268 273 275 279 286 298 308 312 321 318 298 289 301 318 322 321 313 293 284 287 296 298 293 290 289 286 279 274 269 263 256 254 255 256 260 263 265 266 269 270 273 276 282 287 290 288 288 291 291 287 283 277 272 271 273 274 273 273 275 278 278 276
275 276 283 293 300 303 308 312 310 304 300 301 302 303 304 304 304 305 307 312 312 298 283 284 289 292 295 296 292 292 298 303 300 295 301 319 324 304 282 279 288 295 303 307 303 294 289 285 281 276 274 272 268 266 266 265 261 260 260 261 261 263 265 272 280 285 287 289 292 297 300 296 289 285 281 278 277 278 280 281 279 279 281 282 283
269 271 278 287 293 297 301 305 303 296 292 295 298 299 300 299 298 299 301 305 306 305 305 307 306 309 313 312 305 300 296 293 297 306 320 329 314 297 291 292 293 297 307 313 310 302 292 283 279 276 272 272 272 272 271 268 265 262 258 256 257 259 265 276 286 292 297 301 305 307 303 296 294 294 294 295 295 291 288 287 285 285 286 287 289
266 270 277 284 289 292 296 299 297 289 287 291 295 296 296 296 296 296 295 294 294 296 301 306 308 309 313 312 307 304 302 302 309 321 329 322 306 299 301 306 306 307 313 318 318 316 309 295 286 281 276 275 277 274 268 263 259 255 252 249 250 256 270 282 289 296 302 306 311 310 304 302 305 307 303 298 294 291 289 288 287 288 290 290 291
272 274 279 285 289 289 291 294 291 282 280 286 291 293 293 292 291 290 288 288 288 290 297 303 308 312 317 317 311 308 309 311 312 314 314 306 299 299 303 306 305 305 310 315 315 312 307 297 284 276 277 278 274 264 256 248 242 239 237 241 247 257 269 277 282 288 292 296 299 299 302 306 307 304 300 296 292 288 287 286 287 287 287 289 292
284 283 284 286 287 286 287 289 284 276 278 284 289 291 290 288 287 285 283 284 285 288 293 298 303 309 317 321 317 312 312 312 310 308 306 304 301 301 299 293 292 295 300 304 304 299 295 289 277 269 271 270 258 245 234 225 227 231 232 233 238 244 251 258 267 277 282 288 294 296 300 305 306 303 298 293 290 290 289 288 288 289 289 291 291
303 299 293 290 286 284 284 284 278 273 276 283 288 289 288 286 285 283 282 282 280 282 287 292 297 304 313 316 315 313 312 313 314 314 314 313 309 301 289 283 286 288 289 291 292 286 282 278 270 265 263 248 231 226 225 224 225 224 224 230 237 245 254 263 273 281 285 288 294 301 305 307 308 306 302 296 293 294 293 292 292 292 291 292 291
322 315 306 297 290 285 282 278 273 272 276 282 288 289 287 286 285 282 279 277 276 279 285 289 293 302 309 310 310 313 310 308 308 309 308 308 306 298 287 282 282 283 284 287 284 275 270 267 261 254 243 226 220 220 218 217 217 218 226 240 249 256 266 272 275 280 285 289 294 300 304 308 309 308 304 301 301 301 299 297 297 295 292 293 291
327 321 312 303 295 288 280 273 271 273 277 283 289 290 289 287 285 280 275 272 274 279 283 286 292 300 306 305 305 305 298 296 299 301 301 302 302 296 286 280 280 282 284 285 280 269 260 251 243 241 234 222 217 211 206 209 216 224 238 253 259 264 273 276 278 281 284 286 290 295 296 299 302 302 301 301 302 302 300 299 297 295 293 291 287
323 319 312 304 296 286 279 276 276 276 277 283 289 292 290 287 282 276 271 270 273 277 281 285 292 299 302 300 299 295 289 290 295 298 298 299 297 291 282 277 278 281 283 284 278 260 241 232 234 238 229 214 204 202 204 215 225 232 246 257 262 267 271 273 277 282 282 281 284 287 289 292 295 297 300 302 302 301 301 299 296 294 291 287 283
318 315 309 302 293 285 280 279 278 275 276 282 289 291 288 283 277 272 269 269 270 274 278 284 291 296 297 295 293 291 290 292 294 294 295 294 291 284 276 272 274 277 279 279 268 242 230 230 231 225 214 205 206 211 217 227 237 246 256 262 265 269 272 274 275 276 277 278 280 282 284 289 292 294 296 298 299 299 300 299 297 295 289 284 281
313 312 306 300 293 286 281 277 276 275 278 283 287 289 286 280 275 270 268 268 271 274 277 283 289 293 293 291 290 289 290 292 292 289 288 286 283 278 271 266 267 271 271 266 252 233 226 225 222 217 211 209 215 224 235 244 254 261 266 269 272 274 275 277 277 274 272 272 272 276 284 290 292 293 294 294 296 298 300 302 303 299 290 284 281
310 308 303 299 294 289 283 279 276 276 278 281 284 287 285 279 274 270 268 270 272 275 277 282 286 288 288 287 287 288 289 291 290 286 282 279 277 276 270 263 262 264 261 250 236 226 223 220 217 214 215 219 226 237 249 259 266 272 272 272 273 273 273 276 278 275 270 268 267 272 282 288 291 295 296 296 299 301 301 303 304 300 293 287 281
307 303 300 297 295 291 287 282 277 276 277 280 284 287 286 282 277 273 271 271 273 274 277 281 283 284 283 283 284 285 287 289 287 282 277 274 273 271 269 262 258 256 250 238 227 221 219 218 219 220 222 228 237 248 261 268 271 270 265 259 257 259 260 264 268 268 263 258 257 264 276 286 293 298 300 301 303 302 301 301 300 297 293 288 283
305 301 298 295 293 291 288 284 279 277 278 280 283 286 287 286 282 277 274 273 273 274 277 280 281 280 280 279 279 281 283 285 282 278 274 271 268 267 266 261 254 250 244 234 225 221 217 215 220 225 226 234 246 258 268 270 262 246 238 235 232 230 225 212 217 232 231 235 252 267 279 289 295 298 298 299 299 295 293 293 291 288 287 287 285
304 301 297 294 292 291 288 286 282 280 280 282 284 285 286 286 283 279 276 275 275 275 277 278 278 278 277 276 277 278 278 278 276 273 269 266 264 264 263 258 250 245 240 230 221 218 216 216 222 228 231 241 257 263 261 251 234 220 219 223 217 208 204 204 206 209 214 231 259 277 287 293 298 298 296 296 294 290 288 286 285 284 285 285 284
305 301 297 294 292 290 289 289 287 284 284 284 283 283 284 284 282 280 278 277 277 276 276 276 276 276 275 274 274 273 273 272 270 268 265 262 261 260 259 255 246 239 232 224 217 215 217 220 225 230 236 248 260 258 244 228 217 213 214 214 210 208 210 212 214 219 230 246 266 282 291 295 298 298 296 296 294 290 288 287 285 284 283 282 282
305 301 296 293 291 291 291 291 288 286 285 283 280 281 282 282 281 281 280 278 277 277 276 275 275 274 273 272 271 270 268 267 266 264 261 258 255 253 253 249 240 228 219 215 214 216 220 223 225 231 242 253 255 244 228 213 209 210 211 211 210 211 214 220 231 242 250 259 272 283 289 291 292 293 293 293 292 291 290 290 287 285 283 282 282
305 301 297 294 292 292 292 290 287 286 285 283 280 279 280 280 281 282 282 279 279 278 278 278 277 275 272 271 269 267 266 265 264 261 256 251 249 247 245 239 228 216 212 213 216 219 222 224 227 234 245 250 244 231 218 211 210 211 211 211 213 219 227 238 248 256 261 268 274 280 285 287 288 287 287 288 290 291 290 289 288 286 285 284 284